Date String (YYYY-MM-DD hh:mm:ss) UTC,Instrument flags,absolute air pressure of the measurement (hPa),sample flow rate (lpm),inlet stack bypass flow (lpm),air temperature of the measurement (°C),ambient temperature measured by the external sensor (°C),aerosol sample conditioner tube jacket temperature (°C),OPC LED temperature (°C),internal box temperature (°C),relative humidity of the measurement (%),span deviation,mass concentration of particles derived from Lorenz-Mie calculation of OPC scattering (μg/m³),mass concentration of particles derived from Lorenz-Mie calculation of OPC scattering (μg/m³),mass concentration of particles derived from Lorenz-Mie calculation of OPC scattering (μg/m³)
DateTimeUTC,F1_M11,P_M11,Q1_M11,Q2_M11,T1_M11,T2_M11,T3_M11,T4_M11,T5_M11,U1_M11,ZSPAN_M11,X0_M11,X2_M11,X1_M11
2023-08-01 15:00:00,SystemResetWarning,0835.9,5.02,000.00,032.4,027.4,000.0,040.3,031.9,33.4,0000.0,0011.34,0006.91,0006.14
2023-08-01 15:01:00,SystemResetWarning,0835.9,5.00,000.00,032.4,027.7,000.0,040.3,032.0,33.2,0000.0,0010.89,0006.72,0005.97
2023-08-01 15:02:00,SystemResetWarning,0835.9,5.00,000.00,032.3,027.9,000.0,040.3,032.0,33.5,0000.0,0010.09,0006.50,0005.81
2023-08-01 15:03:00,SystemResetWarning,0835.9,5.00,000.00,032.3,028.1,000.0,040.3,032.0,33.8,0000.0,0009.56,0006.29,0005.63
2023-08-01 15:04:00,SystemResetWarning,0835.9,5.00,000.00,032.3,028.3,000.0,040.3,032.0,33.6,0000.0,0009.41,0006.11,0005.46
2023-08-01 15:05:00,SystemResetWarning,0835.9,5.00,000.00,032.2,028.4,000.0,040.3,032.1,33.7,0000.0,0009.30,0005.96,0005.28
2023-08-01 15:06:00,SystemResetWarning,0835.9,5.01,000.00,032.2,028.6,000.0,040.3,032.1,34.0,0000.0,0009.01,0005.72,0005.10
2023-08-01 15:07:00,SystemResetWarning,0835.8,4.97,000.00,032.2,028.7,000.0,040.3,032.2,35.1,0000.0,0008.85,0005.57,0004.97
2023-08-01 15:08:00,SystemResetWarning,0835.9,5.04,000.00,032.3,028.7,000.0,040.3,032.3,34.8,0000.0,0008.70,0005.45,0004.86
2023-08-01 15:09:00,SystemResetWarning,0835.9,4.96,000.00,032.4,027.6,000.0,040.2,032.2,33.3,0000.0,0008.63,0005.34,0004.75
2023-08-01 15:10:00,SystemResetWarning,0835.9,5.02,000.00,032.5,026.2,000.0,040.0,032.0,33.1,0000.0,0008.58,0005.28,0004.66
2023-08-01 15:11:00,SystemResetWarning,0835.8,5.01,000.00,032.4,025.8,000.0,040.0,031.8,32.7,0000.0,0008.54,0005.20,0004.58
2023-08-01 15:12:00,SystemResetWarning,0835.8,5.00,000.00,032.2,026.0,000.0,040.0,031.6,34.0,0000.0,0008.47,0005.12,0004.53
2023-08-01 15:13:00,SystemResetWarning,0835.8,4.97,000.00,032.1,026.4,000.0,040.1,031.6,35.7,0000.0,0008.62,0005.08,0004.48
2023-08-01 15:14:00,SystemResetWarning,0835.7,5.03,000.00,032.2,026.8,000.0,040.1,031.8,36.6,0000.0,0008.68,0005.06,0004.44
2023-08-01 15:15:00,SystemResetWarning,0835.8,4.99,000.00,032.4,027.2,000.0,040.1,031.9,35.0,0000.0,0008.56,0004.99,0004.38
2023-08-01 15:16:00,SystemResetWarning,0835.8,4.99,000.00,032.6,027.5,000.0,040.1,032.1,33.9,0000.0,0008.46,0004.93,0004.34
2023-08-01 15:17:00,SystemResetWarning,0835.8,5.01,000.00,032.7,027.8,000.0,040.1,032.1,33.4,0000.0,0008.46,0004.91,0004.31
2023-08-01 15:18:00,SystemResetWarning,0835.8,5.01,000.00,032.8,028.0,000.0,040.2,032.1,33.7,0000.0,0008.39,0004.88,0004.26
2023-08-01 15:19:00,SystemResetWarning,0835.9,5.00,000.00,032.8,028.2,000.0,040.2,032.2,33.6,0000.0,0008.62,0004.86,0004.23
2023-08-01 15:20:00,SystemResetWarning,0835.9,5.00,000.00,032.8,028.4,000.0,040.3,032.2,33.8,0000.0,0008.71,0004.85,0004.23
2023-08-01 15:21:00,SystemResetWarning,0835.9,5.00,000.00,032.8,028.5,000.0,040.4,032.2,33.1,0000.0,0008.68,0004.83,0004.22
2023-08-01 15:22:00,SystemResetWarning,0835.9,4.99,000.00,032.8,028.0,000.0,040.3,032.3,32.7,0000.0,0008.74,0004.86,0004.23
2023-08-01 15:23:00,SystemResetWarning,0835.9,5.01,000.00,032.8,026.5,000.0,040.2,032.0,32.4,0000.0,0008.75,0004.89,0004.23
2023-08-01 15:24:00,SystemResetWarning,0835.9,5.01,000.00,032.7,025.8,000.0,040.1,031.9,31.2,0000.0,0008.58,0004.89,0004.22
2023-08-01 15:25:00,SystemResetWarning,0835.9,5.01,000.00,032.5,025.9,000.0,040.1,031.6,32.2,0000.0,0008.64,0004.87,0004.21
2023-08-01 15:26:00,SystemResetWarning,0836.0,5.00,000.00,032.3,026.3,000.0,040.2,031.5,33.4,0000.0,0008.58,0004.86,0004.22
2023-08-01 15:27:00,SystemResetWarning,0835.9,5.00,000.00,032.2,026.7,000.0,040.2,031.6,32.9,0000.0,0008.60,0004.88,0004.23
2023-08-01 15:28:00,SystemResetWarning,0836.0,5.01,000.00,032.1,027.0,000.0,040.2,031.7,33.2,0000.0,0008.60,0004.88,0004.23
2023-08-01 15:29:00,SystemResetWarning,0835.9,5.00,000.00,032.0,027.4,000.0,040.2,031.8,33.0,0000.0,0008.67,0004.89,0004.24
2023-08-01 15:30:00,SystemResetWarning,0835.9,4.99,000.00,032.0,027.7,000.0,040.2,031.9,33.0,0000.0,0008.58,0004.92,0004.24
2023-08-01 15:31:00,SystemResetWarning,0835.9,4.99,000.00,032.0,027.9,000.0,040.2,031.9,33.3,0000.0,0008.41,0004.89,0004.23
2023-08-01 15:32:00,SystemResetWarning,0835.9,5.00,000.00,031.9,028.1,000.0,040.1,031.9,33.8,0000.0,0008.35,0004.86,0004.21
2023-08-01 15:33:00,SystemResetWarning,0835.9,5.01,000.00,031.9,028.3,000.0,040.1,032.0,34.4,0000.0,0008.29,0004.80,0004.17
2023-08-01 15:34:00,SystemResetWarning,0835.9,5.00,000.00,031.9,028.1,000.0,040.0,032.0,34.2,0000.0,0008.64,0004.76,0004.14
2023-08-01 15:35:00,SystemResetWarning,0835.8,4.99,000.00,031.9,026.8,000.0,039.9,031.8,33.2,0000.0,0008.70,0004.75,0004.12
2023-08-01 15:36:00,SystemResetWarning,0835.8,5.01,000.00,031.8,025.8,000.0,039.7,031.6,32.1,0000.0,0008.56,0004.70,0004.11
2023-08-01 15:37:00,SystemResetWarning,0835.8,5.01,000.00,031.6,025.8,000.0,039.7,031.4,31.8,0000.0,0008.60,0004.71,0004.08
2023-08-01 15:38:00,SystemResetWarning,0835.8,5.01,000.00,031.5,026.1,000.0,039.7,031.3,32.9,0000.0,0008.63,0004.70,0004.08
2023-08-01 15:39:00,SystemResetWarning,0835.8,4.99,000.00,031.4,026.5,000.0,039.7,031.4,33.0,0000.0,0008.93,0004.69,0004.08
2023-08-01 15:40:00,SystemResetWarning,0835.8,4.99,000.00,031.3,026.9,000.0,039.7,031.5,32.1,0000.0,0008.79,0004.65,0004.07
2023-08-01 15:41:00,SystemResetWarning,0835.9,5.00,000.00,031.2,027.2,000.0,039.6,031.5,32.3,0000.0,0008.52,0004.57,0004.04
2023-08-01 15:42:00,SystemResetWarning,0835.8,5.01,000.00,031.2,027.5,000.0,039.6,031.6,33.2,0000.0,0008.44,0004.52,0004.03
2023-08-01 15:43:00,SystemResetWarning,0835.8,4.99,000.00,031.2,027.8,000.0,039.6,031.7,34.8,0000.0,0008.37,0004.49,0004.03
2023-08-01 15:44:00,SystemResetWarning,0835.8,5.01,000.00,031.2,028.0,000.0,039.6,031.7,35.7,0000.0,0008.32,0004.50,0004.03
2023-08-01 15:45:00,SystemResetWarning,0835.8,5.01,000.00,031.4,028.2,000.0,039.5,031.9,34.1,0000.0,0008.09,0004.56,0004.06
2023-08-01 15:46:00,SystemResetWarning,0835.8,4.98,000.00,031.6,027.7,000.0,039.4,031.9,34.3,0000.0,0008.11,0004.58,0004.06
2023-08-01 15:47:00,SystemResetWarning,0835.8,5.03,000.00,031.6,026.3,000.0,039.3,031.6,33.5,0000.0,0008.05,0004.57,0004.06
2023-08-01 15:48:00,SystemResetWarning,0835.8,4.98,000.00,031.6,025.7,000.0,039.2,031.4,33.5,0000.0,0008.01,0004.57,0004.06
2023-08-01 15:49:00,SystemResetWarning,0835.7,4.99,000.00,031.5,025.8,000.0,039.3,031.2,34.3,0000.0,0008.14,0004.56,0004.06
2023-08-01 15:50:00,SystemResetWarning,0835.6,5.00,000.00,031.3,026.1,000.0,039.3,031.2,33.8,0000.0,0007.95,0004.58,0004.06
2023-08-01 15:51:00,SystemResetWarning,0835.6,4.99,000.00,031.3,026.5,000.0,039.3,031.3,35.2,0000.0,0008.06,0004.61,0004.05
2023-08-01 15:52:00,SystemResetWarning,0835.6,5.02,000.00,031.4,026.9,000.0,039.4,031.4,35.2,0000.0,0008.10,0004.63,0004.05
2023-08-01 15:53:00,SystemResetWarning,0835.7,4.97,000.00,031.6,027.3,000.0,039.4,031.6,34.9,0000.0,0008.24,0004.67,0004.06
2023-08-01 15:54:00,SystemResetWarning,0835.6,5.03,000.00,031.8,027.6,000.0,039.4,031.8,34.3,0000.0,0008.23,0004.68,0004.05
2023-08-01 15:55:00,SystemResetWarning,0835.6,4.99,000.00,031.9,027.8,000.0,039.4,031.8,33.1,0000.0,0008.18,0004.64,0004.02
2023-08-01 15:56:00,SystemResetWarning,0835.6,4.99,000.00,032.0,028.1,000.0,039.5,031.9,32.1,0000.0,0008.09,0004.60,0003.98
2023-08-01 15:57:00,SystemResetWarning,0835.6,5.00,000.00,032.0,028.2,000.0,039.6,031.9,32.6,0000.0,0008.12,0004.57,0003.96
2023-08-01 15:58:00,SystemResetWarning,0835.6,5.00,000.00,032.1,027.4,000.0,039.5,031.9,32.3,0000.0,0008.32,0004.56,0003.95
2023-08-01 15:59:00,SystemResetWarning,0835.6,5.00,000.00,032.1,026.1,000.0,039.4,031.6,32.9,0000.0,0008.29,0004.54,0003.95
